Weather History for Chicago Executive, IL

Change the Weather History Date:

Sunday, February 3, 2013

  Actual Average Record
Temperature  
Mean Temperature 16 °F 25 °F  
Max Temperature 22 °F 32 °F 47 °F (1999)
Min Temperature 9 °F 18 °F -6 °F (2007)
Degree Days  
Heating Degree Days 49 40  
Month to date heating degree days 157 121  
Since 1 July heating degree days 3577 3818  
Cooling Degree Days 0 0  
Month to date cooling degree days 0 0  
Year to date cooling degree days 0 0  
Moisture  
Dew Point 10 °F    
Average Humidity 74    
Maximum Humidity 89    
Minimum Humidity 60    
Precipitation  
Precipitation T in 0.03 in 0.21 in (2006)
Month to date precipitation T 0.09  
Year to date precipitation 3.40 1.72  
Sea Level Pressure  
Sea Level Pressure 30.03 in    
Wind  
Wind Speed 8 mph (West)    
Max Wind Speed 23 mph    
Max Gust Speed 28 mph    
Visibility 6 miles    
Events Snow    
T = Trace of Precipitation, MM = Missing Value Source: NWS Daily Summary

Daily Weather History Graph

Daily Weather History Graph

Search for Another Location

Airport:

Trip Planner

Search our weather history database for the weather conditions in past years. The results will help you decide how hot, cold, wet, or windy it might be!

Date:

Astronomy

Feb. 03, 2013 Rise Set
Actual Time 7:02 AM CST 5:09 PM CST
Civil Twilight 6:32 AM CST 5:38 PM CST
Nautical Twilight 5:59 AM CST 6:12 PM CST
Astronomical Twilight 5:26 AM CST 6:44 PM CST
Moon 12:29 AM CST (2/3) 10:45 AM CST (2/3)
Length of Visible Light 11h 05m
Length of Day
10h 06m
Waning Gibbous, 48% of the Moon is Illuminated
Feb 3
Waning Gibbous
Feb 10
New
Feb 17
First Quarter
Feb 25
Full
Mar 4
Last Quarter

Hourly Weather History & Observations

Time (CST) Temp. Windchill Dew Point Humidity Pressure Visibility Wind Dir Wind Speed Gust Speed Precip Events Conditions
12:52 AM 9.0 °F - -0.9 °F 64% 30.05 in 10.0 mi Calm Calm - N/A   Overcast
3:52 AM 10.9 °F 2.9 °F 5.0 °F 77% 30.00 in 5.0 mi WSW 4.6 mph - 0.00 in Snow Light Snow
4:52 AM 10.9 °F 4.7 °F 6.1 °F 81% 29.99 in 4.0 mi WSW 3.5 mph - 0.00 in   Haze
6:52 AM 12.9 °F 6.9 °F 7.0 °F 77% 30.02 in 9.0 mi West 3.5 mph - N/A   Overcast
7:52 AM 12.9 °F 5.2 °F 8.1 °F 81% 30.01 in 8.0 mi WSW 4.6 mph - N/A   Overcast
8:28 AM 14.0 °F 6.5 °F 8.6 °F 79% 29.98 in 1.8 mi West 4.6 mph - 0.00 in Snow Light Snow
8:40 AM 14.0 °F 5.1 °F 10.4 °F 86% 29.98 in 1.2 mi West 5.8 mph - 0.00 in Snow Light Snow
8:52 AM 15.1 °F 4.2 °F 10.0 °F 80% 30.02 in 1.2 mi West 8.1 mph - 0.00 in Snow Light Snow
9:21 AM 15.8 °F 5.1 °F 10.4 °F 79% 29.98 in 1.5 mi WNW 8.1 mph - 0.00 in Snow Light Snow
9:34 AM 15.8 °F 5.1 °F 10.4 °F 79% 29.98 in 2.0 mi West 8.1 mph - 0.00 in Snow Light Snow
9:45 AM 15.8 °F 4.2 °F 10.4 °F 79% 29.98 in 1.5 mi West 9.2 mph - 0.00 in Snow Light Snow
9:52 AM 17.1 °F 5.0 °F 12.0 °F 81% 30.02 in 2.0 mi West 10.4 mph - 0.00 in Snow Light Snow
10:08 AM 17.6 °F 5.7 °F 12.2 °F 79% 29.98 in 3.0 mi WNW 10.4 mph - 0.00 in Snow Light Snow
10:16 AM 17.6 °F 5.0 °F 10.4 °F 73% 29.99 in 2.5 mi West 11.5 mph - 0.00 in Snow Light Snow
10:30 AM 17.6 °F 3.2 °F 10.4 °F 73% 29.99 in 2.5 mi WNW 15.0 mph 19.6 mph 0.00 in Snow Light Snow
10:52 AM 18.0 °F 6.1 °F 10.9 °F 74% 30.03 in 4.0 mi WNW 10.4 mph - 0.00 in Snow Light Snow
11:28 AM 19.4 °F 5.5 °F 10.4 °F 68% 30.00 in 9.0 mi WNW 15.0 mph 19.6 mph 0.00 in   Overcast
11:52 AM 19.9 °F 5.7 °F 10.0 °F 65% 30.04 in 8.0 mi WNW 16.1 mph - 0.00 in   Overcast
12:18 PM 19.4 °F 4.5 °F 10.4 °F 68% 29.99 in 10.0 mi West 17.3 mph - N/A   Scattered Clouds
12:52 PM 21.0 °F 8.1 °F 10.0 °F 63% 30.04 in 10.0 mi WNW 13.8 mph - N/A   Partly Cloudy
1:52 PM 21.0 °F 7.1 °F 9.0 °F 60% 30.04 in 10.0 mi WNW 16.1 mph - N/A   Clear
2:52 PM 21.9 °F 9.8 °F 10.0 °F 60% 30.06 in 10.0 mi West 12.7 mph - N/A   Partly Cloudy
3:52 PM 21.0 °F 10.6 °F 10.0 °F 63% 30.06 in 9.0 mi WSW 9.2 mph - N/A   Partly Cloudy
4:52 PM 19.9 °F 7.3 °F 8.1 °F 60% 30.06 in 10.0 mi West 12.7 mph 18.4 mph N/A   Clear
5:52 PM 19.0 °F 11.1 °F 8.1 °F 62% 30.06 in 10.0 mi West 5.8 mph - N/A   Mostly Cloudy
6:52 PM 19.9 °F 13.4 °F 10.0 °F 65% 30.07 in 10.0 mi West 4.6 mph - N/A   Overcast
7:52 PM 19.9 °F 8.6 °F 10.0 °F 65% 30.08 in 10.0 mi West 10.4 mph - N/A   Overcast
8:52 PM 19.9 °F 9.3 °F 10.0 °F 65% 30.09 in 10.0 mi West 9.2 mph - N/A   Overcast
9:52 PM 19.9 °F 10.1 °F 10.0 °F 65% 30.09 in 10.0 mi West 8.1 mph - N/A   Overcast
10:48 PM 19.4 °F 10.4 °F 15.8 °F 86% 30.05 in 2.5 mi West 6.9 mph - 0.00 in Snow Light Snow
10:52 PM 19.9 °F 12.1 °F 15.1 °F 81% 30.08 in 1.8 mi West 5.8 mph - 0.00 in Snow Light Snow
11:24 PM 19.4 °F 11.5 °F 15.8 °F 86% 30.04 in 1.0 mi West 5.8 mph - 0.00 in Snow Light Snow
11:33 PM 19.4 °F 12.8 °F 15.8 °F 86% 30.04 in 1.5 mi West 4.6 mph - 0.00 in Snow Light Snow
11:42 PM 19.4 °F 11.5 °F 15.8 °F 86% 30.04 in 2.0 mi West 5.8 mph - 0.00 in Snow Light Snow
11:52 PM 19.9 °F 14.9 °F 17.1 °F 89% 30.07 in 1.5 mi West 3.5 mph - 0.00 in Snow Light Snow